Berlin, NH

12:41 PM EDT on June 23, 2017 (GMT -0400)
Berlin Municipal

Weather History for KBML - January, 2013

Change the Weather History Date:

Monday, January 28, 2013

  Actual Average Record
Temperature  
Mean Temperature 4 °F -  
Max Temperature 17 °F 23 °F 45 °F (2006)
Min Temperature -9 °F 0 °F -26 °F (2005)
Degree Days  
Heating Degree Days 61    
Moisture  
Dew Point 5 °F    
Average Humidity 75    
Maximum Humidity 88    
Minimum Humidity 36    
Precipitation  
Precipitation 0.09 in - - ()
Sea Level Pressure  
Sea Level Pressure 30.17 in    
Wind  
Wind Speed 0 mph (North)    
Max Wind Speed 0 mph    
Max Gust Speed -    
Visibility 5 miles    
Events Snow    
Averages and records for this station are not official NWS values.
T = Trace of Precipitation, MM = Missing Value Source: NWS Daily Summary

Daily Weather History Graph

Daily Weather History Graph

Search for Another Location

Airport or City:

Trip Planner

Search our weather history database for the weather conditions in past years. The results will help you decide how hot, cold, wet, or windy it might be!

Date:

Astronomy

Jan. 28, 2013 Rise Set
Actual Time 7:07 AM EST 4:48 PM EST
Civil Twilight 6:36 AM EST 5:19 PM EST
Nautical Twilight 6:01 AM EST 5:54 PM EST
Astronomical Twilight 5:26 AM EST 6:29 PM EST
Moon 6:46 PM EST (1/28) 7:25 AM EST (1/28)
Length of Visible Light 10h 43m
Length of Day
9h 40m
Full, 98% of the Moon is Illuminated
Jan 28
Full
Feb 3
Last Quarter
Feb 10
New
Feb 17
First Quarter
Feb 25
Full

Hourly Weather History & Observations

Time (EST) Temp. Dew Point Humidity Pressure Visibility Wind Dir Wind Speed Gust Speed Precip Events Conditions
12:52 AM -5.1 °F -11.0 °F 76% 30.46 in 10.0 mi Calm Calm - N/A   Overcast
1:52 AM -5.1 °F -11.0 °F 76% 30.45 in 10.0 mi Calm Calm - N/A   Partly Cloudy
2:52 AM -8.0 °F -13.0 °F 79% 30.45 in 10.0 mi Calm Calm - N/A   Clear
3:52 AM -8.0 °F -13.0 °F 79% 30.44 in 10.0 mi Calm Calm - N/A   Partly Cloudy
4:52 AM -9.9 °F -16.1 °F 74% 30.44 in 10.0 mi Calm Calm - N/A   Clear
5:52 AM -9.0 °F -15.0 °F 75% 30.44 in 10.0 mi Calm Calm - N/A   Clear
6:52 AM -9.0 °F -15.0 °F 75% 30.44 in 10.0 mi Calm Calm - N/A   Clear
7:52 AM -8.0 °F -13.0 °F 79% 30.44 in 7.0 mi Calm Calm - N/A   Clear
8:52 AM -0.9 °F -7.1 °F 75% 30.41 in 10.0 mi Calm Calm - N/A   Overcast
9:52 AM 6.1 °F -6.0 °F 58% 30.38 in 10.0 mi Calm Calm - N/A   Overcast
10:52 AM 10.9 °F -5.1 °F 49% 30.36 in 10.0 mi Calm Calm - N/A   Scattered Clouds
11:52 AM 14.0 °F -6.0 °F 41% 30.31 in 10.0 mi Calm Calm - N/A   Overcast
12:52 PM 17.1 °F -6.0 °F 36% 30.25 in 10.0 mi Calm Calm - N/A   Overcast
1:52 PM 17.1 °F 3.0 °F 54% 30.21 in 2.5 mi Calm Calm - 0.00 in Snow Light Snow
2:02 PM 17.6 °F 6.8 °F 63% 30.12 in 1.5 mi Calm Calm - 0.00 in Snow Light Snow
2:30 PM 17.6 °F 8.6 °F 68% 30.12 in 2.0 mi Calm Calm - 0.00 in Snow Light Snow
2:44 PM 17.6 °F 8.6 °F 68% 30.12 in 1.2 mi Calm Calm - 0.00 in Snow Light Snow
2:52 PM 16.0 °F 10.0 °F 77% 30.20 in 1.2 mi Calm Calm - 0.00 in Snow Light Snow
3:52 PM 17.1 °F 12.0 °F 81% 30.16 in 1.0 mi Calm Calm - 0.01 in Snow Light Snow
4:24 PM 17.6 °F 12.2 °F 79% 30.07 in 0.8 mi Calm Calm - 0.01 in Snow Light Snow
4:41 PM 17.6 °F 12.2 °F 79% 30.06 in 1.0 mi Calm Calm - 0.01 in Snow Light Snow
5:52 PM 17.1 °F 12.0 °F 81% 30.14 in 1.8 mi Calm Calm - 0.02 in Snow Light Snow
6:09 PM 17.6 °F 12.2 °F 79% 30.05 in 1.2 mi Calm Calm - 0.01 in Snow Light Snow
6:31 PM 17.6 °F 12.2 °F 79% 30.03 in 3.0 mi Calm Calm - 0.01 in Snow Light Snow
6:52 PM 17.1 °F 12.0 °F 81% 30.12 in 5.0 mi Calm Calm - 0.01 in Snow Light Snow
7:25 PM 17.6 °F 12.2 °F 79% 30.02 in 2.5 mi Calm Calm - 0.00 in Snow Light Snow
7:42 PM 17.6 °F 12.2 °F 79% 30.03 in 4.0 mi Calm Calm - 0.00 in Snow Light Snow
7:52 PM 17.1 °F 12.0 °F 81% 30.10 in 6.0 mi Calm Calm - 0.00 in Snow Light Snow
8:28 PM 17.6 °F 12.2 °F 79% 30.00 in 2.0 mi Calm Calm - 0.00 in Snow Light Snow
8:32 PM 17.6 °F 12.2 °F 79% 30.00 in 1.8 mi Calm Calm - 0.00 in Snow Light Snow
8:44 PM 17.6 °F 12.2 °F 79% 30.00 in 2.0 mi Calm Calm - 0.00 in Snow Light Snow
8:52 PM 17.1 °F 12.9 °F 84% 30.08 in 2.5 mi Calm Calm - 0.00 in Snow Light Snow
9:05 PM 17.6 °F 12.2 °F 79% 30.00 in 1.8 mi Calm Calm - 0.01 in Snow Light Snow
9:43 PM 17.6 °F 14.0 °F 86% 29.99 in 1.2 mi Calm Calm - 0.02 in Snow Light Snow
9:52 PM 17.1 °F 14.0 °F 88% 30.07 in 1.5 mi Calm Calm - 0.02 in Snow Light Snow
10:01 PM 17.6 °F 12.2 °F 79% 30.00 in 1.2 mi Calm Calm - 0.00 in Snow Light Snow
10:49 PM 17.6 °F 12.2 °F 79% 29.99 in 1.8 mi Calm Calm - 0.02 in Snow Light Snow
10:52 PM 17.1 °F 12.9 °F 84% 30.07 in 2.0 mi Calm Calm - 0.02 in Snow Light Snow
11:03 PM 17.6 °F 12.2 °F 79% 30.00 in 2.0 mi Calm Calm - 0.00 in Snow Light Snow
11:47 PM 17.6 °F 14.0 °F 86% 30.00 in 3.0 mi Calm Calm - 0.01 in Snow Light Snow
11:52 PM 17.1 °F 14.0 °F 88% 30.08 in 3.0 mi Calm Calm - 0.01 in Snow Light Snow